TimeEDT,TemperatureF,Dew PointF,Humidity,Sea Level PressureIn,VisibilityMPH,Wind Direction,Wind SpeedMPH,Gust SpeedMPH,PrecipitationIn,Events,Conditions,WindDirDegrees,DateUTC
12:56 AM,55.0,48.9,80,30.20,10.0,ENE,4.6,-,N/A,,Overcast,70,2012-10-25 04:56:00
1:17 AM,55.4,50.0,82,30.20,10.0,Calm,Calm,-,0.00,,Overcast,0,2012-10-25 05:17:00
1:56 AM,55.0,48.9,80,30.21,10.0,NE,4.6,-,0.00,Rain,Light Rain,40,2012-10-25 05:56:00
2:45 AM,53.6,48.2,82,30.20,10.0,ENE,4.6,-,0.00,,Overcast,70,2012-10-25 06:45:00
2:56 AM,54.0,48.9,83,30.20,10.0,East,5.8,-,0.00,,Overcast,80,2012-10-25 06:56:00
3:42 AM,53.6,48.2,82,30.20,10.0,NE,3.5,-,N/A,,Overcast,50,2012-10-25 07:42:00
3:56 AM,54.0,48.9,83,30.20,10.0,ENE,3.5,-,N/A,,Overcast,60,2012-10-25 07:56:00
4:56 AM,55.0,48.0,77,30.20,10.0,NE,5.8,-,N/A,,Overcast,50,2012-10-25 08:56:00
5:56 AM,54.0,48.0,80,30.22,10.0,ENE,5.8,-,N/A,,Overcast,60,2012-10-25 09:56:00
6:56 AM,55.0,48.9,80,30.23,10.0,ENE,3.5,-,N/A,,Overcast,60,2012-10-25 10:56:00
9:56 AM,57.0,50.0,77,30.27,10.0,NE,4.6,-,N/A,,Overcast,40,2012-10-25 13:56:00
10:56 AM,57.9,50.0,75,30.26,10.0,East,5.8,-,N/A,,Overcast,90,2012-10-25 14:56:00
11:56 AM,60.1,50.0,69,30.26,10.0,East,5.8,-,N/A,,Overcast,80,2012-10-25 15:56:00
12:56 PM,61.0,48.9,64,30.26,10.0,East,5.8,-,N/A,,Overcast,90,2012-10-25 16:56:00
2:56 PM,61.0,46.0,58,30.25,10.0,East,4.6,-,N/A,,Overcast,100,2012-10-25 18:56:00
3:56 PM,61.0,46.9,60,30.24,10.0,ESE,8.1,-,N/A,,Overcast,110,2012-10-25 19:56:00
4:56 PM,60.1,46.9,62,30.24,10.0,ESE,6.9,-,N/A,,Overcast,110,2012-10-25 20:56:00
5:56 PM,59.0,46.9,64,30.24,10.0,ESE,5.8,-,N/A,,Overcast,110,2012-10-25 21:56:00
6:56 PM,57.9,48.9,72,30.26,10.0,ENE,3.5,-,N/A,,Overcast,60,2012-10-25 22:56:00
7:56 PM,59.0,48.9,69,30.25,10.0,ENE,3.5,-,N/A,,Overcast,60,2012-10-25 23:56:00
9:56 PM,57.9,50.0,75,30.24,10.0,Calm,Calm,-,N/A,,Overcast,0,2012-10-26 01:56:00
10:32 PM,57.2,50.0,77,30.23,10.0,Calm,Calm,-,N/A,,Overcast,0,2012-10-26 02:32:00